Regional Weather Roundup
Issued by NWS

Home | Current Version | Previous Version | Graphics & Text | Print | Product List | Glossary On
Versions: 1 2 3 4 5 6 7 8 9 10 11 12 13 14 15 16 17 18 19 20 21 22 23 24 25 26 27 28 29 30 31 32 33 34 35 36 37 38 39 40 41 42 43 44 45 46 47 48 49 50
284
ASUS43 KLSX 261307
RWRMO

WEATHER SUMMARY FOR MISSOURI
NATIONAL WEATHER SERVICE SPRINGFIELD MO
800 AM CDT SUN MAR 26 2017

NOTE: "FAIR" INDICATES FEW OR NO CLOUDS BELOW 12,000 FEET WITH NO
       SIGNIFICANT WEATHER AND/OR OBSTRUCTIONS TO VISIBILITY.
       CURRENT SKY AND/OR WEATHER CONDITIONS ARE NOT AVAILABLE FOR
       CHILLICOTHE AND FARMINGTON.

MOZ001>031-035>038-043-044-053-054-261400-
...NORTHERN AND WESTERN MISSOURI...

CITY           SKY/WX    TMP DP  RH WIND       PRES   REMARKS
KANSAS CTY INT CLOUDY    43  42  97 NW5       29.90S
KANSAS C DTWN  CLOUDY    45  42  89 NW3       29.90S
LEE`S SUMMIT   CLOUDY    44  44 100 W5        29.91R
ST JOSEPH      CLOUDY    43  42  97 NW6       29.91R
CHILLICOTHE      N/A     43  42  97 W6        29.90R
KIRKSVILLE     CLOUDY    44  44 100 W12       29.86R

$$
MOZ066>068-077>081-088>096-101>105-261400-
...SOUTHWEST MISSOURI...

CITY           SKY/WX    TMP DP  RH WIND       PRES   REMARKS
SPRINGFIELD    CLOUDY    47  44  90 W3        29.92S
JOPLIN         PTCLDY    46  45  96 CALM      29.93R
BRANSON        MOCLDY    46  45  93 NW6       29.94S

$$
MOZ032>034-039>042-045>050-055>058-069>072-261400-
...CENTRAL MISSOURI...

CITY           SKY/WX    TMP DP  RH WIND       PRES   REMARKS
COLUMBIA       CLOUDY    48  48 100 W9        29.89R FOG
JEFFERSON CITY LGT RAIN  51  48  89 NW7       29.90R
ROLLA          CLOUDY    47  47 100 SW10      29.89R FOG
SEDALIA        CLOUDY    48  32  53 W6        29.91R FOG
WHITEMAN AFB   CLOUDY    46  46 100 W9        29.90R
WARRENSBURG    CLOUDY    45  43  93 W6        29.91R FOG
OSAGE BEACH    CLOUDY   N/A N/A N/A W9        29.92R

$$
MOZ051-052-059>065-261400-
...EAST CENTRAL MISSOURI...

CITY           SKY/WX    TMP DP  RH WIND       PRES   REMARKS
ST LOUIS INTL  CLOUDY    53  46  77 SW10      29.89R
SPIRIT OF STL  CLOUDY    51  48  89 SW7       29.89R
ST CHARLES     CLOUDY    51  49  92 SW8       29.88R

$$
MOZ072>076-082>087-097>100-106>115-261400-
...SOUTH CENTRAL AND SOUTHEAST MISSOURI...

CITY           SKY/WX    TMP DP  RH WIND       PRES   REMARKS
CAPE GIRARDEAU CLOUDY    52  47  83 SW6       29.93R
FARMINGTON     CLOUDY    49  45  86 SW6       29.93R
POPLAR BLUFF   CLOUDY    52  48  86 SW7       29.95R
WEST PLAINS    CLOUDY    48  46  93 W5        29.95R FOG

$$



USA.gov is the U.S. government's official web portal to all federal, state and local government web resources and services.